Theta_e
311 311 313 312 312 311 311 311 312 312 313 315 315 315 315 314 314 315 319 325 328 327 325 328 331 330 330 334 338 340 341 340 341 340 340 338 340 341 340 342 346 346 344 342 337
311 311 312 313 312 312 312 313 314 315 315 316 317 317 316 315 316 324 326 327 326 325 324 331 334 335 336 338 337 337 342 339 340 340 341 341 342 342 343 344 345 344 342 340 335
311 311 312 313 313 312 313 314 315 316 316 317 318 318 316 317 327 328 328 327 325 323 329 331 330 337 338 336 338 337 341 341 340 340 341 341 341 341 343 344 345 343 341 338 333
311 311 311 313 313 313 314 315 316 316 317 318 318 319 319 322 335 329 328 324 322 324 327 328 329 336 337 339 339 340 340 340 340 340 340 342 341 342 343 342 344 343 341 335 331
311 311 311 313 313 313 315 315 316 316 317 318 319 320 321 325 331 328 326 323 322 326 328 330 334 336 337 339 338 339 340 341 341 341 341 341 343 342 342 343 343 342 336 332 328
312 311 311 313 313 313 315 316 316 317 317 318 319 320 321 330 331 326 323 323 328 329 330 334 335 335 336 335 336 337 340 341 341 341 341 342 341 342 342 343 342 338 333 331 330
312 312 312 312 314 314 316 316 316 317 317 318 320 321 326 328 329 323 325 329 329 329 332 332 333 334 333 341 338 339 338 338 342 342 342 341 342 343 341 340 339 337 334 331 330
312 312 312 313 314 314 316 317 317 317 318 318 321 322 326 328 329 327 327 328 328 327 330 331 332 334 337 333 333 341 337 338 336 339 342 341 346 340 340 338 337 336 335 333 331
312 312 312 313 314 315 317 318 318 318 318 319 322 321 325 329 327 328 327 328 327 327 330 330 330 336 336 335 335 337 347 342 341 337 345 343 346 340 339 338 338 337 335 333 331
312 312 312 313 314 316 318 318 319 320 321 321 331 330 329 326 327 328 328 327 328 328 329 330 335 337 336 338 344 334 334 341 344 341 340 341 345 341 339 338 337 336 336 334 332
312 312 312 313 315 318 319 319 323 324 323 326 325 326 330 327 327 328 328 328 329 329 330 332 336 337 334 336 336 333 336 338 337 334 336 337 344 341 338 337 337 337 336 334 333
312 312 312 314 317 319 321 326 328 326 327 323 327 326 327 328 328 329 328 328 330 331 330 330 328 335 334 335 334 336 337 339 338 338 338 336 342 342 339 338 336 335 336 335 332
312 312 313 315 319 322 324 327 327 325 326 327 326 326 328 328 328 329 328 328 329 330 329 328 328 332 333 333 336 335 336 336 335 333 339 337 346 342 339 337 334 332 334 333 330
312 312 313 317 319 325 328 327 325 325 327 328 326 327 328 328 329 328 327 327 328 327 328 328 329 331 332 334 336 336 333 335 334 334 333 338 338 342 340 336 332 331 331 332 331
313 313 313 318 327 327 328 325 325 325 328 328 326 326 328 328 328 328 328 327 327 328 328 328 329 332 333 332 334 332 334 335 334 335 336 338 343 341 337 335 334 331 329 328 330
313 313 313 318 323 327 324 326 328 327 331 327 326 326 328 328 328 328 327 327 326 326 327 328 328 331 333 334 333 335 337 336 337 335 338 342 341 343 339 334 331 328 327 327 325
313 313 314 324 327 325 325 327 330 328 332 332 326 327 327 327 327 327 328 328 327 327 328 329 331 334 335 334 335 336 336 335 334 331 337 341 341 340 335 331 330 328 326 324 324
313 313 314 320 323 324 325 329 333 331 330 331 328 326 326 326 326 327 327 327 328 328 330 331 335 334 335 337 335 335 333 333 335 335 332 331 342 337 332 330 329 327 325 325 325
313 314 314 319 323 324 326 330 333 337 335 334 328 326 326 327 329 329 330 330 332 333 335 334 335 335 335 334 333 332 331 329 332 330 330 337 335 333 330 327 326 325 325 324 324
315 326 319 323 325 326 329 329 331 333 331 335 331 329 328 327 331 331 332 334 334 333 332 333 338 335 334 333 332 331 330 331 331 332 333 334 340 336 331 329 326 326 325 325 324
315 325 321 326 326 326 330 329 335 332 331 335 335 333 333 335 333 333 335 336 335 333 332 334 336 336 334 334 333 330 326 329 331 330 334 337 340 333 331 328 327 325 325 324 323
327 330 327 323 326 325 327 331 333 334 333 334 336 336 335 337 338 336 338 334 331 331 334 332 333 333 332 330 329 328 328 329 332 332 331 328 333 329 328 327 326 325 323 322 320
331 327 326 322 326 327 329 333 333 333 333 334 333 332 333 335 335 332 335 332 331 334 335 335 332 331 329 334 334 331 329 327 328 330 331 333 337 329 327 326 325 323 322 320 316
331 327 324 323 325 331 336 333 333 331 332 332 332 333 332 334 335 334 335 332 331 329 325 334 332 331 329 331 330 332 329 327 327 330 330 330 333 330 328 326 324 322 320 315 315
331 333 327 325 326 329 334 335 334 332 331 332 332 332 333 335 334 335 336 334 331 329 331 333 334 332 330 328 327 327 326 326 327 326 327 326 326 330 327 325 322 319 316 315 315
338 338 333 328 330 331 330 337 335 333 333 333 334 334 331 336 335 337 339 336 335 334 332 332 337 331 332 330 327 326 326 326 326 327 327 326 329 327 325 322 320 317 316 315 315
338 335 331 329 329 332 335 335 334 333 333 333 332 334 335 333 331 333 335 335 333 333 334 334 335 334 333 332 332 328 331 328 326 326 326 327 327 323 322 320 317 315 315 315 315
Wind_Speed
13 12 8 6 5 5 4 3 1 1 2 1 2 4 3 4 6 7 10 8 8 4 8 4 7 12 15 17 22 15 4 5 10 11 13 11 11 5 5 15 20 13 20 26 21
12 11 8 5 4 4 3 2 1 1 2 1 0 2 2 4 8 10 12 10 8 6 7 11 12 7 9 24 15 11 1 4 18 14 13 10 11 7 10 9 13 22 21 21 20
13 11 8 6 5 4 3 2 2 1 1 2 1 1 5 8 5 11 17 9 8 5 9 13 9 8 5 15 14 13 5 14 14 10 16 11 11 4 16 2 14 22 21 18 17
13 12 9 6 4 3 3 2 2 2 1 2 2 3 9 11 3 6 9 6 3 6 7 13 12 0 15 11 16 6 9 14 10 8 4 15 13 12 15 13 14 18 20 20 17
14 12 9 7 5 4 4 4 3 3 0 1 1 2 7 9 9 6 7 6 4 5 11 13 8 7 6 11 18 8 5 10 9 8 9 8 13 13 13 13 17 20 20 18 15
14 12 9 6 5 5 5 4 4 3 2 2 3 4 9 13 7 5 6 5 5 8 18 11 17 2 6 7 6 13 7 6 5 10 10 13 13 9 11 19 18 18 18 16 15
15 12 9 6 5 5 5 4 5 4 4 4 4 7 7 13 5 7 7 6 4 10 16 5 10 15 11 27 31 38 21 21 20 8 6 7 10 10 14 16 17 15 13 13 14
14 12 8 5 4 5 5 5 6 5 6 6 5 8 9 6 7 11 10 8 7 8 10 5 8 18 25 21 15 11 11 5 19 24 7 5 11 14 17 17 14 14 11 10 12
14 11 8 4 4 5 6 6 6 5 6 6 6 9 17 9 11 14 11 8 7 9 9 8 8 17 14 10 11 13 18 23 14 21 9 10 13 15 15 14 14 14 13 14 13
12 10 6 5 4 6 6 6 5 4 5 7 7 6 11 12 14 15 11 9 10 10 13 13 3 2 4 9 15 15 12 13 12 8 11 8 13 11 12 11 19 18 14 15 14
11 10 6 5 5 6 6 4 5 4 11 14 19 25 16 15 16 14 12 9 11 15 14 19 11 11 8 17 20 13 11 12 14 10 6 5 16 15 17 9 8 17 20 19 16
10 9 6 5 6 7 8 10 7 4 9 21 20 27 22 20 14 15 13 11 15 14 21 10 13 9 8 20 8 19 12 5 15 22 6 9 9 8 16 13 7 7 11 9 9
10 8 6 6 7 7 9 12 7 6 8 21 17 25 19 19 19 21 16 17 18 18 15 13 13 6 9 8 16 13 25 7 13 16 15 4 8 11 12 13 9 8 10 8 5
9 7 6 6 6 8 10 8 7 6 8 13 17 19 12 17 21 19 18 17 24 16 18 10 16 2 10 4 6 11 14 18 20 18 15 7 7 4 4 8 5 9 4 7 1
9 7 7 11 4 5 3 3 5 3 6 14 19 19 16 21 19 18 20 20 16 18 16 14 15 10 12 12 10 15 16 18 19 14 19 1 7 1 3 7 7 8 11 10 7
9 7 9 10 10 2 2 3 2 7 5 7 15 18 16 17 19 21 18 18 18 15 20 19 23 5 6 18 15 11 14 19 21 12 11 9 8 9 5 8 9 7 9 11 12
10 8 11 14 9 4 4 7 7 12 8 14 18 16 14 14 13 13 20 13 12 13 16 18 15 7 8 13 24 4 15 13 13 10 7 15 4 6 9 9 9 8 6 9 13
10 9 14 19 8 7 7 9 14 18 6 8 12 12 14 17 17 21 12 10 15 19 13 13 14 5 14 17 9 14 13 9 17 12 15 7 7 1 10 10 8 4 7 6 12
8 8 15 17 10 8 12 11 12 6 12 15 10 10 14 19 17 16 14 11 3 9 8 10 12 10 10 6 9 11 10 15 10 15 16 5 7 9 7 6 6 5 5 14 10
5 7 11 13 11 8 11 15 17 11 12 28 11 14 15 16 8 14 13 8 12 3 8 7 14 7 12 8 15 3 6 8 5 10 13 2 6 8 10 5 2 6 9 4 5
8 8 14 14 9 11 10 12 6 31 42 10 12 4 5 5 11 22 7 14 16 12 7 9 5 12 7 6 6 8 10 9 7 9 10 6 2 11 7 5 6 11 8 8 10
8 9 12 14 12 14 13 9 11 8 2 5 5 13 17 12 13 27 8 14 10 9 7 5 4 8 15 10 8 5 6 6 5 9 11 10 5 8 10 12 8 6 2 9 9
8 11 7 16 11 12 19 5 2 5 0 8 4 7 11 9 5 9 9 9 5 9 7 10 4 8 11 8 5 5 4 3 6 6 11 5 3 8 12 6 4 5 9 9 9
8 3 8 16 21 16 13 10 6 7 8 8 3 7 8 11 10 6 5 7 9 9 5 6 5 8 9 9 4 6 3 4 3 7 10 8 12 7 3 2 1 4 5 8 9
8 6 4 8 14 14 18 28 14 8 3 3 3 5 3 4 8 8 8 8 8 6 3 5 7 7 10 7 7 7 5 5 6 9 5 12 7 10 4 5 4 6 7 9 9
10 15 10 12 7 5 6 14 17 10 14 9 6 6 2 5 7 10 17 3 1 8 3 2 6 5 11 8 5 9 7 3 8 3 8 9 4 7 4 3 5 7 7 9 12
10 10 9 12 8 11 4 6 20 11 11 8 4 1 6 5 7 7 6 7 6 4 3 2 5 7 8 5 7 9 7 7 4 5 4 6 6 8 7 10 8 5 5 9 13
Wind_Direction
348 347 344 333 330 320 317 307 295 291 257 221 235 251 239 222 199 189 212 237 236 264 232 229 273 248 249 253 151 167 263 51 84 100 115 132 113 76 115 98 70 61 131 144 142
345 342 336 323 314 296 279 255 236 211 231 191 205 254 194 182 179 226 222 237 271 250 217 225 225 237 282 22 46 0 73 301 81 100 127 143 107 127 104 120 113 96 117 135 143
342 340 335 316 309 296 275 257 262 222 164 81 55 112 158 165 197 222 219 250 256 205 209 282 294 282 77 195 182 192 192 74 60 108 126 119 107 104 131 109 137 135 139 144 146
340 337 332 313 303 280 267 271 260 238 139 73 54 141 170 186 253 205 212 233 199 179 231 269 254 242 293 213 167 110 55 92 100 86 98 128 111 75 61 71 112 138 144 148 146
338 335 330 307 298 277 267 267 256 265 267 64 338 164 185 228 263 195 198 202 188 212 249 248 256 287 291 79 61 22 62 102 129 115 89 100 58 101 89 93 118 130 139 149 152
336 335 327 299 281 257 250 259 258 265 274 283 278 203 217 259 258 180 177 195 198 254 264 259 281 261 292 3 338 198 204 120 137 133 145 137 139 161 119 120 123 128 142 151 167
335 334 326 299 275 248 245 252 261 260 272 274 262 214 237 267 201 169 183 205 237 260 293 318 330 308 329 14 36 40 32 5 335 215 142 164 154 106 140 135 133 137 150 172 187
334 333 324 295 264 239 236 246 258 262 265 261 236 207 246 215 199 188 202 224 248 263 287 324 308 32 63 28 11 73 96 278 272 265 141 201 148 137 150 145 155 163 166 175 191
333 331 317 284 248 226 232 247 256 263 258 233 192 186 234 227 203 199 207 233 252 258 265 285 297 85 38 100 292 212 201 208 223 228 148 216 118 159 162 164 168 179 178 189 203
330 323 303 266 230 219 230 248 249 247 245 201 173 217 228 225 192 198 217 234 261 260 264 242 145 64 127 145 248 350 349 84 110 186 234 150 129 161 156 162 177 184 186 191 203
327 315 291 249 219 218 230 229 231 227 209 209 192 207 182 198 182 206 216 236 248 259 259 250 156 181 316 257 248 309 8 50 330 269 260 126 162 159 152 172 199 179 183 199 212
320 309 283 244 222 232 233 226 299 347 234 222 242 218 232 175 186 209 205 224 248 252 252 256 265 160 225 260 269 2 357 113 231 249 231 293 148 163 145 176 183 191 187 212 207
315 302 268 231 227 235 226 240 271 306 260 219 249 206 202 180 206 202 204 229 254 269 279 275 286 185 260 340 33 34 292 284 290 313 231 136 112 130 204 171 185 153 149 188 214
309 290 250 223 241 219 223 247 256 283 267 223 205 215 209 201 210 214 198 230 257 260 262 308 294 297 281 357 7 265 316 335 321 313 305 174 298 45 11 121 108 101 168 205 163
302 273 233 207 238 254 136 266 240 217 258 177 195 202 224 202 222 226 217 218 256 278 291 280 289 318 326 345 345 320 338 307 289 286 293 181 45 44 256 141 141 112 90 85 96
292 257 225 231 252 318 246 254 152 219 257 157 184 206 203 214 228 246 207 228 254 281 272 286 286 264 2 340 303 313 304 300 288 253 276 146 144 190 188 159 121 105 81 59 37
284 247 217 206 216 217 266 228 226 234 65 254 162 200 204 228 234 239 248 222 242 236 250 253 299 330 33 335 294 293 305 315 320 315 284 177 162 182 156 87 97 106 90 80 70
281 244 223 210 239 271 275 247 251 227 198 269 177 198 205 216 221 236 226 238 232 241 270 303 311 350 292 242 306 303 312 314 307 309 321 284 84 145 39 125 123 119 96 66 55
276 249 232 215 234 266 264 246 238 99 315 283 192 191 207 219 226 204 219 262 117 240 294 313 294 235 240 300 309 327 305 339 304 289 278 108 102 174 161 142 166 112 74 72 40
255 233 226 205 215 245 259 264 289 66 307 269 196 198 209 232 302 203 230 34 359 116 323 296 298 300 166 221 280 199 314 312 302 297 297 188 141 158 206 167 106 94 69 43 19
240 234 196 193 206 237 250 261 24 192 210 278 305 293 349 36 333 308 67 351 320 309 311 309 316 299 268 306 334 321 319 330 339 290 298 348 98 154 140 100 75 66 47 8 342
263 259 171 185 209 235 241 266 181 242 282 276 15 89 283 101 290 254 118 185 273 279 319 68 327 295 294 84 37 346 335 343 317 315 322 306 91 90 85 72 37 67 13 342 336
266 230 179 189 222 228 227 258 282 219 263 15 18 38 14 126 224 13 78 79 44 39 16 356 331 315 287 58 1 293 43 312 301 280 275 345 306 158 89 73 56 358 339 326 1
279 196 168 214 245 285 337 194 171 131 107 122 26 18 8 334 328 327 107 74 70 69 5 321 300 270 285 355 2 260 169 306 270 277 343 51 131 123 117 52 258 339 335 343 335
252 309 145 199 226 247 101 269 180 175 165 111 356 242 320 321 322 325 121 134 160 152 181 4 287 323 294 337 318 327 310 322 343 325 326 333 348 136 142 4 1 17 342 334 329
285 344 339 271 306 265 211 145 238 87 246 172 187 290 335 22 351 351 353 61 206 167 71 48 296 319 300 256 269 299 289 241 264 245 320 325 58 31 338 316 16 352 338 338 344
342 301 275 289 243 262 302 338 311 163 36 80 164 86 52 22 343 345 11 19 31 14 109 285 327 302 313 1 300 270 287 195 301 321 354 321 29 357 4 1 344 314 324 348 336